Location: College Rock
(37.2713°N, 119.1740°W)
Time: 13:22:00
(UTC+00:00)

COSMO-SKYMED 1 - Pass Details

Date: 29 October 2020
Orbit: 621 x 623 km, 97.9° (Epoch: 01 December)

Event Time Altitude Azimuth Distance (km) Brightness Sun altitude
Rises 13:20:44 0° 171° (S) 2,888 6.2 -12.1°
Reaches altitude 10° 13:22:55 10° 174° (S) 1,986 5.3 -11.7°
Maximum altitude 13:27:14 71° 258° (WSW) 660 2.5 -10.8°
Drops below altitude 10° 13:31:35 10° 343° (NNW) 2,001 4.9 -10.0°
Sets 13:33:48 0° 346° (NNW) 2,911 5.8 -9.6°
